Regional Weather Roundup
Issued by NWS

Home | Current Version | Previous Version | Text Only | Print | Product List | Glossary On
Versions: 1 2 3 4 5 6 7 8 9 10 11 12 13 14 15 16 17 18 19 20 21 22 23 24 25 26 27 28 29 30 31 32 33 34 35 36 37 38 39 40 41 42 43 44 45 46 47 48 49 50
000
ASUS45 KABQ 252110
RWRNM
NEW MEXICO REGIONAL WEATHER ROUNDUP
NATIONAL WEATHER SERVICE ALBUQUERQUE NM
300 PM MDT WED MAY 25 2016

NOTE: "FAIR" MEANS FEW OR NO CLOUDS BELOW 12,000 FEET AGL WITH NO
       SIGNIFICANT WEATHER OR OBSTRUCTIONS TO VISION.

      THIS PRODUCT IS RELEASED AS TWO VERSIONS.  ONE VERSION NEAR
      THE TOP OF THE HOUR CONTAINING PRELIMINARY DATA FROM ALBUQUERQUE
      AND OTHER STATIONS.  A FINAL VERSION WITH ADDITIONAL DATA IS
      ISSUED ABOUT 10 MINUTES AFTER THE HOUR.

NMZ501-503-504-510>518-252200-
NORTHWEST PLATEAU/NORTHCENTRAL MOUNTAINS

CITY           SKY/WX    TMP DP  RH WIND       PRES   REMARKS
FARMINGTON     FAIR      74   2   6 S8G23     30.04F
LOS ALAMOS     FAIR      69   7   9 S18G28    30.14F
SANTA FE       FAIR      73  11   9 W9        30.10F
TAOS           FAIR      70  12  11 S5        30.13F
ANGEL FIRE     FAIR      62  13  14 W12G24    30.18F

$$
NMZ402-403-502-505>509-252200-
WESTCENTRAL MOUNTAINS/SOUTHWEST MOUNTAINS

CITY           SKY/WX    TMP DP  RH WIND       PRES   REMARKS
GALLUP         FAIR      73  17  12 SW18G32   30.09F
GRANTS         FAIR      74  16  11 SW7G20    30.10F
SILVER CITY      N/A     79  16   9 SW16G25   30.10F

$$
NMZ407-409-411-412-252200-
SOUTHERN DESERTS

CITY           SKY/WX    TMP DP  RH WIND       PRES   REMARKS
LORDSBURG      FAIR      84  19   9 W16G23    30.01F
DEMING         FAIR      88  16   7 S13G30    30.01F
LAS CRUCES     FAIR      87  22   9 SW18G31   30.05F
HOLLOMAN AFB   FAIR      86  19   8 SW15G32   30.01F
ALAMOGORDO     FAIR      86  23  10 SW13G23   30.04F
T OR C         FAIR      85  14   7 SW28G38   30.01F

$$
NMZ519>523-252200-
CENTRAL VALLEYS/CENTRAL HIGHLANDS

CITY           SKY/WX    TMP DP  RH WIND       PRES   REMARKS
ALBUQUERQUE    FAIR      76  18  11 S9        30.06F
DOUBLE EAGLE   MOSUNNY   75  21  13 SW12G18   30.08F
MORIARTY ARPT  FAIR      76  14   9 SW15      30.11F
CLINES CORNERS FAIR      72  15  11 SW20G30   30.13F
BELEN          FAIR      80  18   9 S6        30.02F
SOCORRO        FAIR      82  20  10 S16G28    30.01F

$$
NMZ524>526-539-540-252200-
SOUTHCENTRAL MOUNTAINS

CITY           SKY/WX    TMP DP  RH WIND       PRES   REMARKS
RUIDOSO          N/A     73  14  10 SW18G39   30.18S

$$
NMZ527>531-252200-
NORTHEAST HIGHLANDS/NORTHEAST PLAINS

CITY           SKY/WX    TMP DP  RH WIND       PRES   REMARKS
LAS VEGAS      FAIR      72   8   8 SW21G29   30.10F
RATON          FAIR      78   8   7 SW26G35   30.00F
CLAYTON        FAIR      83  17   8 SW9       29.97F

$$
NMZ532>537-252200-
EASTCENTRAL PLAINS

CITY           SKY/WX    TMP DP  RH WIND       PRES   REMARKS
TUCUMCARI      FAIR      89  15   6 W17G32    29.94F
CANNON AFB     FAIR      87  24  10 S20G25    29.99F
CLOVIS AIRPORT FAIR      88  28  11 SW17G25   29.99F

$$
NMZ028-029-538-252200-
SOUTHEAST PLAINS

CITY           SKY/WX    TMP DP  RH WIND       PRES   REMARKS
ROSWELL        FAIR      95  11   4 SW24G32   29.93F
ARTESIA        FAIR      91  25   9 SW24G33   29.96F
CARLSBAD       FAIR      96  22   7 W18G25    29.93F
HOBBS          SUNNY     93  19   7 SW15G24   29.99F


$$




USA.gov is the U.S. government's official web portal to all federal, state and local government web resources and services.